SL-8 DEB, 21136

Orbit data source: Space-Track

SL-8 DEB, 21136 is space debris in LEO originally from a launch on Tue, 12 Feb 1991 UTC launched from the Plesetsk Missile And Space Complex (PKMTR). Debris objects in space refer to the collection of defunct objects orbiting the Earth. Examples of debris include non-operational satellites, rocket bodies, and fragments generated from explosions, collisions, or faulty payload assembly.

Loading next visibility...
Identifier
21136, 1991-009N
Orbit
LEO
Country
Flag of CISCIS
Related business
Manufacturer
Unknown
Mission
Spacecraft
Bus & Motor
Unknown
Mass
Unknown
Launch date (UTC)
1991-02-12 (35 years ago)
Launch vehicle
Unknown
Launch site
Plesetsk Missile And Space Complex (PKMTR)
Object type
Payload
Rocket body
Debris
Shape & HBR
Unknown shape, 0.1 m
Radar Cross Section
Medium (>0.1 m² and <1 m²)

Expand to show TLE details & history
Last TLE update: 16 hours ago

TLE from 16 hours ago
0 SL-8 DEB
1 21136U 91009N   26171.25867049  .00000216  00000-0  25968-2 0  9991
2 21136  73.9970 116.1555 0286902  47.1284 103.7983 11.97331278544193
Epoch: 2026-06-20T06:12Z
TLE epoch observation values (Epoch: 2026-06-20T06:12:29.130Z)
Latitude
24.86514°
Longitude
-73.04349°
Altitude
1,756.731 km
Speed
6.977 km/s
True Right ascension
19h 14m 12s
True Declination
24° 45' 01"
Sunlit
Object was in partial shadow at epoch
Visualization orbit readout
Latitude
Unknown
Longitude
Unknown
Altitude
Unknown
Speed
Unknown
Apparent Right ascension
Unknown
Apparent Declination
Unknown
Sunlit
N/A
Visualization observer readout
Local Sidereal Time
08:46:34
Azimuth
Unknown
Elevation
Unknown
Doppler factor
Unknown
Orbital elements
Apogee altitude
1,922.225 km
Perigee altitude
1,459.23 km
Semi-major axis
8,068.864 km
Eccentricity
0.02869
Inclination
73.997°
RAAN
116.1555°
Arg. of periapsis
47.1284°
True anomaly
106.96238°
Mean anomaly
103.7983°
Eccentric anomaly
105.38323°
Mean motion
2.9945 °/min
Orbital period
120.22 mins
BSTAR
0.0025968
Loading maneuver chart data...
Computing Atmospheric mass density...
Loading historical data...
Loading historical data...
Loading historical data...
Loading historical data...
Loading historical data...
Loading historical data...
Loading historical data...

Documentation

Showing up to 5 results
|